| time (UTC) | temp F | wind direction | speed knots | gust knots | rain 1hr in | rain 24hr in | rain mn in | humidity % | barometer mb |
| 20260503212001 | 50 | 128 | 0.0 | 0.0 | 0.00 | 0.00 | 0.00 | 81 | 1011.5 |
| 20260503211000 | 50 | 89 | 0.0 | 0.0 | 0.00 | 0.00 | 0.00 | 79 | 1011.5 |
| 20260503210000 | 50 | 101 | 1.7 | 0.0 | 0.00 | 0.00 | 0.00 | 81 | 1011.5 |
| 20260503205000 | 52 | 180 | 1.7 | 0.0 | 0.00 | 0.00 | 0.00 | 75 | 1011.5 |
| 20260503204001 | 52 | 138 | 0.0 | 0.0 | 0.00 | 0.00 | 0.00 | 71 | 1011.5 |
| 20260503203001 | 54 | 52 | 0.0 | 0.0 | 0.00 | 0.00 | 0.00 | 70 | 1011.5 |
| 20260503202000 | 55 | 27 | 0.0 | 0.0 | 0.00 | 0.00 | 0.00 | 67 | 1011.5 |
| 20260503201000 | 54 | 118 | 0.0 | 0.0 | 0.00 | 0.00 | 0.00 | 70 | 1011.1 |
| 20260503200000 | 55 | 80 | 0.0 | 0.0 | 0.00 | 0.00 | 0.00 | 68 | 1011.1 |
| 20260503195001 | 55 | 193 | 3.5 | 0.0 | 0.00 | 0.00 | 0.00 | 69 | 1011.1 |
| 20260503194000 | 55 | 0 | 1.7 | 0.0 | 0.00 | 0.00 | 0.00 | 68 | 1011.1 |
| 20260503193000 | 55 | 335 | 0.0 | 0.0 | 0.00 | 0.00 | 0.00 | 74 | 1011.1 |
| 20260503192000 | 55 | 136 | 0.0 | 0.0 | 0.00 | 0.00 | 0.00 | 94 | 1011.1 |
| 20260503191001 | 57 | 166 | 0.0 | 0.0 | 0.00 | 0.00 | 0.00 | 91 | 1011.1 |
| 20260503190000 | 59 | 138 | 0.0 | 0.0 | 0.00 | 0.00 | 0.00 | 63 | 1011.1 |
| 20260503185000 | 59 | 88 | 0.0 | 0.0 | 0.00 | 0.00 | 0.00 | 53 | 1010.8 |
| 20260503184001 | 61 | 61 | 0.0 | 0.0 | 0.00 | 0.00 | 0.00 | 53 | 1010.8 |
| 20260503183001 | 63 | 74 | 0.0 | 0.0 | 0.00 | 0.00 | 0.00 | 46 | 1010.8 |
| 20260503182000 | 64 | 43 | 0.0 | 0.0 | 0.00 | 0.00 | 0.00 | 41 | 1010.8 |
| 20260503181000 | 66 | 46 | 0.0 | 0.0 | 0.00 | 0.00 | 0.00 | 38 | 1010.8 |
| 20260503180001 | 68 | 46 | 0.0 | 0.0 | 0.00 | 0.00 | 0.00 | 37 | 1010.8 |
| 20260503175000 | 72 | 54 | 0.0 | 0.0 | 0.00 | 0.00 | 0.00 | 33 | 1010.8 |
| 20260503174001 | 73 | 56 | 1.7 | 0.0 | 0.00 | 0.00 | 0.00 | 32 | 1010.8 |
| 20260503173001 | 73 | 71 | 1.7 | 0.0 | 0.00 | 0.00 | 0.00 | 29 | 1010.8 |
| 20260503172001 | 75 | 85 | 1.7 | 0.0 | 0.00 | 0.00 | 0.00 | 28 | 1010.8 |
| 20260503171000 | 79 | 160 | 1.7 | 0.0 | 0.00 | 0.00 | 0.00 | 26 | 1010.8 |
| 20260503151000 | 82 | 203 | 6.1 | 0.0 | 0.00 | 0.00 | 0.00 | 24 | 1011.1 |
| 20260503131000 | 81 | 212 | 7.8 | 0.0 | 0.00 | 0.00 | 0.00 | 25 | 1012.5 |
| 20260503081000 | 72 | 231 | 17.4 | 0.0 | 0.00 | 0.00 | 0.00 | 35 | 1015.2 |
| 20260503072001 | 70 | 228 | 9.6 | 0.0 | 0.00 | 0.00 | 0.00 | 51 | 1015.2 |
| 20260503071000 | 68 | 222 | 17.4 | 0.0 | 0.00 | 0.00 | 0.00 | 61 | 1015.2 |
| 20260503055000 | 57 | 84 | 0.0 | 0.0 | 0.00 | 0.00 | 0.00 | 85 | 1015.2 |
| 20260503054000 | 55 | 137 | 1.7 | 0.0 | 0.00 | 0.00 | 0.00 | 89 | 1015.2 |
| 20260503053000 | 52 | 47 | 0.0 | 0.0 | 0.00 | 0.00 | 0.00 | 97 | 1015.2 |
| 20260503052000 | 50 | 44 | 1.7 | 0.0 | 0.00 | 0.00 | 0.00 | 97 | 1015.2 |
| 20260503051001 | 50 | 59 | 0.0 | 0.0 | 0.00 | 0.00 | 0.00 | 99 | 1015.2 |
| 20260503050000 | 46 | 37 | 3.5 | 0.0 | 0.00 | 0.00 | 0.00 | 99 | 1015.2 |
| 20260503045000 | 46 | 92 | 0.0 | 0.0 | 0.00 | 0.00 | 0.00 | 99 | 1015.2 |
| 20260503044000 | 45 | 87 | 1.7 | 0.0 | 0.00 | 0.00 | 0.00 | 99 | 1015.2 |
| 20260503043000 | 43 | 59 | 0.0 | 0.0 | 0.00 | 0.00 | 0.00 | 99 | 1015.2 |
| 20260503042001 | 39 | 55 | 0.0 | 0.0 | 0.00 | 0.00 | 0.00 | 99 | 1015.2 |
| 20260503041000 | 37 | 167 | 1.7 | 0.0 | 0.00 | 0.00 | 0.00 | 99 | 1015.2 |
| 20260503040000 | 36 | 217 | 1.7 | 0.0 | 0.00 | 0.00 | 0.00 | 99 | 1015.2 |
| 20260503035000 | 36 | 60 | 0.0 | 0.0 | 0.00 | 0.00 | 0.00 | 99 | 1015.2 |
| 20260503034001 | 36 | 60 | 0.0 | 0.0 | 0.00 | 0.00 | 0.00 | 99 | 1015.2 |
| 20260503033000 | 36 | 117 | 0.0 | 0.0 | 0.00 | 0.00 | 0.00 | 99 | 1015.2 |
| 20260503032000 | 36 | 164 | 0.0 | 0.0 | 0.00 | 0.00 | 0.00 | 99 | 1015.2 |
| 20260503031001 | 37 | 95 | 0.0 | 0.0 | 0.00 | 0.00 | 0.00 | 99 | 1015.2 |
| 20260503030000 | 37 | 28 | 0.0 | 0.0 | 0.00 | 0.00 | 0.00 | 99 | 1015.2 |
| 20260503025001 | 36 | 168 | 6.1 | 0.0 | 0.00 | 0.00 | 0.00 | 99 | 1015.2 |
| 20260503024000 | 37 | 194 | 1.7 | 0.0 | 0.00 | 0.00 | 0.00 | 99 | 1015.2 |
| 20260503023000 | 37 | 15 | 0.0 | 0.0 | 0.00 | 0.00 | 0.00 | 99 | 1015.2 |
| 20260503022000 | 37 | 17 | 0.0 | 0.0 | 0.00 | 0.00 | 0.00 | 99 | 1015.2 |
| 20260503021001 | 37 | 5 | 0.0 | 0.0 | 0.00 | 0.00 | 0.00 | 99 | 1015.2 |
| 20260503020000 | 37 | 129 | 1.7 | 0.0 | 0.00 | 0.00 | 0.00 | 99 | 1015.9 |
| 20260503015001 | 37 | 116 | 0.0 | 0.0 | 0.00 | 0.00 | 0.00 | 99 | 1015.9 |
| 20260503014000 | 37 | 143 | 0.0 | 0.0 | 0.00 | 0.00 | 0.00 | 99 | 1015.9 |
| 20260503013001 | 39 | 3 | 1.7 | 0.0 | 0.00 | 0.00 | 0.00 | 99 | 1015.9 |
| 20260503012000 | 39 | 39 | 0.0 | 0.0 | 0.00 | 0.00 | 0.00 | 99 | 1015.9 |
| 20260503011000 | 39 | 35 | 0.0 | 0.0 | 0.00 | 0.00 | 0.00 | 99 | 1015.9 |
| 20260503010001 | 39 | 358 | 1.7 | 0.0 | 0.00 | 0.00 | 0.00 | 99 | 1015.9 |
| 20260503005000 | 41 | 48 | 1.7 | 0.0 | 0.00 | 0.00 | 0.00 | 99 | 1015.9 |
| 20260503004001 | 41 | 15 | 0.0 | 0.0 | 0.00 | 0.00 | 0.00 | 99 | 1015.9 |
| 20260503003000 | 41 | 45 | 0.0 | 0.0 | 0.00 | 0.00 | 0.00 | 99 | 1015.9 |
| 20260503002000 | 39 | 44 | 0.0 | 0.0 | 0.00 | 0.00 | 0.00 | 99 | 1015.9 |
| 20260503001001 | 41 | 55 | 3.5 | 0.0 | 0.00 | 0.00 | 0.00 | 99 | 1015.9 |
| 20260503000000 | 39 | 52 | 1.7 | 0.0 | 0.00 | 0.00 | 0.00 | 99 | 1015.9 |
| 20260502235001 | 39 | 159 | 0.0 | 0.0 | 0.00 | 0.00 | 0.00 | 99 | 1016.2 |
| 20260502234000 | 39 | 143 | 0.0 | 0.0 | 0.00 | 0.00 | 0.00 | 99 | 1016.2 |
| 20260502233001 | 39 | 149 | 0.0 | 0.0 | 0.00 | 0.00 | 0.00 | 99 | 1016.2 |
| 20260502232000 | 41 | 172 | 1.7 | 0.0 | 0.00 | 0.00 | 0.00 | 99 | 1016.2 |
| 20260502231001 | 41 | 7 | 0.0 | 0.0 | 0.00 | 0.00 | 0.00 | 99 | 1016.2 |
| 20260502230000 | 41 | 32 | 0.0 | 0.0 | 0.00 | 0.00 | 0.00 | 99 | 1016.5 |
| 20260502225000 | 43 | 359 | 1.7 | 0.0 | 0.00 | 0.00 | 0.00 | 99 | 1016.2 |
| 20260502224000 | 43 | 39 | 0.0 | 0.0 | 0.00 | 0.00 | 0.00 | 99 | 1016.5 |
| 20260502223001 | 43 | 16 | 1.7 | 0.0 | 0.00 | 0.00 | 0.00 | 99 | 1016.5 |
| 20260502222000 | 43 | 182 | 0.0 | 0.0 | 0.00 | 0.00 | 0.00 | 99 | 1016.5 |
| 20260502221001 | 41 | 87 | 0.0 | 0.0 | 0.00 | 0.00 | 0.00 | 99 | 1016.5 |
| 20260502220000 | 43 | 146 | 1.7 | 0.0 | 0.00 | 0.00 | 0.00 | 99 | 1016.5 |
| 20260502215000 | 43 | 141 | 0.0 | 0.0 | 0.00 | 0.00 | 0.00 | 99 | 1016.5 |
| 20260502214000 | 43 | 43 | 0.0 | 0.0 | 0.00 | 0.00 | 0.00 | 99 | 1016.5 |
| 20260502213001 | 43 | 120 | 0.0 | 0.0 | 0.00 | 0.00 | 0.00 | 99 | 1016.5 |